Regional Weather Roundup
Issued by NWS Goodland, KS

Home | Current Version | Previous Version | Text Only | Print | Product List | Glossary On
Versions: 1 2 3 4 5 6 7 8 9 10 11 12 13 14 15 16 17 18 19 20 21 22 23 24 25 26 27 28 29 30 31 32 33 34 35 36 37 38 39 40 41 42 43 44 45 46 47 48 49 50
403
ASUS43 KGLD 250108
RWRGLD

GOODLAND FORECAST AREA HOURLY WEATHER ROUNDUP
NATIONAL WEATHER SERVICE GOODLAND KS
600 PM MST FRI NOV 24 2017

...OFFICIAL OBSERVATIONS...

CITY           SKY/WX    TMP DP  RH WIND       PRES   REMARKS
GOODLAND KS    CLEAR     46  32  58 NW3       29.95R
HILL CITY KS   PTCLDY    56  38  50 N8        29.91R
IMPERIAL NEB   CLOUDY    50  33  52 NE8       29.95R
MCCOOK NEB     PTCLDY    52  37  56 N10       29.92R
AKRON CO       CLOUDY    47  34  60 N7        29.99R
BURLINGTON CO  CLEAR     50  34  54 N6        29.98R
LIMON CO       PTCLDY    47  33  58 NE10      30.02R
$$

...UNOFFICIAL OBSERVATIONS...

CITY           SKY/WX    TMP DP  RH WIND       PRES   REMARKS
COLBY KS       PTCLDY    52  37  58 N7        29.95R
LENORA KS        N/A     57  32  39 CALM        N/A
NORTON KS      CLEAR     55  30  38 N10       29.92
SHARON SPRINGS   N/A     57  39  51 NE12        N/A
KIT CARSON CO    N/A     54  34  47 MISG        N/A
YUMA CO        FAIR      46  32  57 NW5       29.99R
$$




USA.gov is the U.S. government's official web portal to all federal, state and local government web resources and services.